Location: Babice
(50.3480°N, 22.9363°E)
Time: 12:34:32
(UTC+00:00)

Meteor 1-11 Rocket - Pass Details

Date: 14 July 2020
Orbit: 831 x 915 km, 81.2° (Epoch: 07 August)

Event Time Altitude Azimuth Distance (km) Brightness Sun altitude
Exits shadow 00:21:46 13° 167° (SSE) 2,250 5.5 -14.2°
Maximum altitude 00:26:34 51° 95° (E) 1,047 4.3 -13.9°
Drops below altitude 10° 00:31:54 10° 21° (NNE) 2,455 7.6 -13.5°
Sets 00:34:22 0° 16° (NNE) 3,399 8.6 -13.3°
